This is the latest recevied weather packets stored in our database for station/object WI0K. If no packets are shown the sender has not sent any weather packets the latest 10 day(s).
| Time | Temp. | Humidity | Pressure | Rain* | Wind** | Luminosity | Snow |
|---|---|---|---|---|---|---|---|
| 1777682534 | 15° C | 20% | 831.9 hPa | 0 mm | - | 51 W/m² | - |
| 1777682233 | 15.56° C | 20% | 831.8 hPa | 0 mm | - | 55 W/m² | - |
| 1777681933 | 15.56° C | 20% | 831.8 hPa | 0 mm | - | 63 W/m² | - |
| 1777681632 | 15.56° C | 20% | 1018.9 hPa | 0 mm | - | 106 W/m² | - |
| 1777681331 | 15.56° C | 19% | 1018.8 hPa | 0 mm | - | 65 W/m² | - |
| 1777681031 | 15.56° C | 19% | 831.7 hPa | 0 mm | - | 65 W/m² | - |
| 1777680730 | 15.56° C | 19% | 1018.8 hPa | 0 mm | - | 69 W/m² | - |
| 1777680429 | 15.56° C | 19% | 831.7 hPa | 0 mm | - | 66 W/m² | - |
| 1777680379 | 15.56° C | 19% | 1018.8 hPa | 0 mm | - | 62 W/m² | - |
| 1777680129 | 15.56° C | 19% | 1018.8 hPa | 0 mm | - | 62 W/m² | - |
| 1777679828 | 15.56° C | 19% | 831.7 hPa | 0 mm | - | 61 W/m² | - |
| 1777679527 | 15.56° C | 21% | 831.7 hPa | 0 mm | - | 62 W/m² | - |
| 1777679227 | 15.56° C | 19% | 831.7 hPa | 0 mm | - | 65 W/m² | - |
| 1777679177 | 15.56° C | 19% | 1018.8 hPa | 0 mm | - | 78 W/m² | - |
| 1777678926 | 15.56° C | 19% | 1018.8 hPa | 0 mm | - | 78 W/m² | - |
| 1777678625 | 15.56° C | 19% | 1018.9 hPa | 0 mm | - | 83 W/m² | - |
| 1777678576 | 15.56° C | 18% | 1018.8 hPa | 0 mm | - | 71 W/m² | - |
| 1777678325 | 15.56° C | 18% | 1018.8 hPa | 0 mm | - | 71 W/m² | - |
| 1777678024 | 15.56° C | 18% | 1018.8 hPa | 0 mm | - | 121 W/m² | - |
| 1777677723 | 15.56° C | 20% | 831.6 hPa | 0 mm | - | 94 W/m² | - |
| 1777677423 | 15.56° C | 19% | 1018.8 hPa | 0 mm | - | 102 W/m² | - |
| 1777677122 | 15.56° C | 19% | 831.7 hPa | 0 mm | - | 225 W/m² | - |
| 1777676822 | 15.56° C | 19% | 1018.6 hPa | 0 mm | - | 470 W/m² | - |
| 1777676521 | 15.56° C | 20% | 831.7 hPa | 0 mm | - | 477 W/m² | - |
| 1777676468 | 16.11° C | 20% | 831.8 hPa | 0 mm | - | 491 W/m² | - |
* Rain latest hour (hover to see other rain measurements)
** Current wind speed in m/s (hover to see current wind gust speed)